Mazatlan - G. Buelna, Mexico

5:12 AM MDT on July 26, 2016 (GMT -0600)
Gen Rafael Buelna International

Weather History for MMMZ - December, 2012

Change the Weather History Date:

Tuesday, December 18, 2012

  Actual Average Record
Temperature  
Mean Temperature 64 °F -  
Max Temperature 77 °F 79 °F 87 °F (2006)
Min Temperature 51 °F 53 °F 51 °F (1998)
Degree Days  
Heating Degree Days 1    
Growing Degree Days 14 (Base 50)    
Moisture  
Dew Point 58 °F    
Average Humidity 83    
Maximum Humidity 94    
Minimum Humidity 65    
Precipitation  
Precipitation 0.00 in - - ()
Sea Level Pressure  
Sea Level Pressure 29.87 in    
Wind  
Wind Speed 7 mph ()    
Max Wind Speed 12 mph    
Max Gust Speed -    
Visibility 11.1 miles    
Events      
Averages and records for this station are not official NWS values.
T = Trace of Precipitation, MM = Missing Value Source: Averaged Metar Reports

Daily Weather History Graph

Daily Weather History Graph

Search for Another Location

Airport or City:

Trip Planner

Search our weather history database for the weather conditions in past years. The results will help you decide how hot, cold, wet, or windy it might be!

Date:

Astronomy

Dec. 18, 2012 Rise Set
Actual Time 6:40 AM MST 5:23 PM MST
Civil Twilight 6:15 AM MST 5:48 PM MST
Nautical Twilight 5:47 AM MST 6:16 PM MST
Astronomical Twilight 5:20 AM MST 6:43 PM MST
Moon 10:57 AM MST (12/18) 11:12 PM MST (12/18)
Length of Visible Light 11h 32m
Length of Day
10h 42m
Waxing Crescent, 35% of the Moon is Illuminated
Dec 18
Waxing Crescent
Dec 19
First Quarter
Dec 28
Full
Jan 4
Last Quarter
Jan 11
New

Hourly Weather History & Observations

Time (MST) Temp. Dew Point Humidity Pressure Visibility Wind Dir Wind Speed Gust Speed Precip Events Conditions
12:41 AM 53.6 °F 51.8 °F 94% 29.82 in 10.0 mi NNE 9.2 mph - N/A   Clear
1:43 AM 55.4 °F 51.8 °F 88% 29.82 in 10.0 mi North 8.1 mph - N/A   Clear
2:42 AM 53.6 °F 51.8 °F 94% 29.82 in 10.0 mi North 6.9 mph - N/A   Clear
3:42 AM 51.8 °F 50.0 °F 94% 29.82 in 10.0 mi North 6.9 mph - N/A   Clear
4:45 AM 51.8 °F 48.2 °F 88% 29.83 in 10.0 mi NNE 8.1 mph - N/A   Clear
5:41 AM 51.8 °F 48.2 °F 88% 29.84 in 10.0 mi North 8.1 mph - N/A   Clear
6:46 AM 51.8 °F 50.0 °F 94% 29.86 in 10.0 mi NNE 10.4 mph - N/A   Clear
7:46 AM 55.4 °F 53.6 °F 94% 29.88 in 12.0 mi NNE 8.1 mph - N/A   Clear
8:49 AM 62.6 °F 55.4 °F 77% 29.91 in 12.0 mi NNE 6.9 mph - N/A   Clear
9:45 AM 71.6 °F 62.6 °F 73% 29.92 in 12.0 mi East 6.9 mph - N/A   Clear
10:49 AM 75.2 °F 66.2 °F 73% 29.93 in 15.0 mi SE 11.5 mph - N/A   Clear
11:46 AM 77.0 °F 66.2 °F 69% 29.89 in 15.0 mi ESE 8.1 mph - N/A   Partly Cloudy
12:50 PM 77.0 °F 64.4 °F 65% 29.86 in 15.0 mi SSW 10.4 mph - N/A   Partly Cloudy
1:45 PM 77.0 °F 64.4 °F 65% 29.86 in 15.0 mi SSW 10.4 mph - N/A   Partly Cloudy
2:40 PM 75.2 °F 64.4 °F 69% 29.85 in 15.0 mi South 8.1 mph - N/A   Clear
3:42 PM 75.2 °F 64.4 °F 69% 29.85 in 15.0 mi SSE 8.1 mph - N/A   Clear
4:43 PM 73.4 °F 64.4 °F 73% 29.85 in 15.0 mi SSW 6.9 mph - N/A   Clear
5:41 PM 68.0 °F 62.6 °F 83% 29.85 in 12.0 mi South 5.8 mph - N/A   Clear
6:40 PM 64.4 °F 60.8 °F 88% 29.87 in 10.0 mi West 5.8 mph - N/A   Clear
7:45 PM 62.6 °F 60.8 °F 94% 29.89 in 10.0 mi North 5.8 mph - N/A   Clear
8:44 PM 60.8 °F 57.2 °F 88% 29.89 in 10.0 mi Calm Calm - N/A   Clear
9:42 PM 60.8 °F 57.2 °F 88% 29.90 in 4.0 mi ENE 5.8 mph - N/A   Clear
10:49 PM 60.8 °F 57.2 °F 88% 29.90 in 4.0 mi North 8.1 mph - N/A   Clear
11:51 PM 60.8 °F 57.2 °F 88% 29.91 in 6.0 mi North 9.2 mph - N/A   Clear